RH
42 43 46 45 47 48 49 49 55 58 42 37 41 44 46 46 46 47 48 48 54 61 63 62 63 64 64 61 60 60 60 59 59 60 60 60 60 60
44 44 45 45 46 47 49 51 52 58 63 44 43 44 44 36 44 45 48 51 56 55 58 61 63 65 65 64 64 63 61 59 58 58 58 59 60 61
45 46 47 46 49 50 51 52 55 56 66 54 47 46 47 50 47 48 48 52 51 50 52 56 60 61 63 64 64 64 63 61 59 60 60 60 60 60
48 48 49 42 49 50 52 52 54 53 60 64 52 52 52 50 50 51 44 40 47 47 52 56 60 62 65 66 65 64 63 63 62 61 59 58 57 57
50 51 51 50 51 51 50 53 54 48 56 61 64 58 57 56 54 52 53 53 43 49 50 52 55 58 60 62 61 62 63 64 64 63 59 58 58 58
51 52 52 54 55 54 52 56 51 58 59 66 70 67 61 56 57 61 62 59 55 39 43 47 51 55 59 61 63 65 65 65 64 63 62 61 60 59
51 52 55 56 58 58 56 61 57 60 61 64 67 66 67 64 66 61 62 62 61 56 54 54 54 60 58 52 54 58 59 62 64 65 64 64 63 62
76 66 57 57 60 61 63 70 82 88 82 74 70 72 71 68 64 64 71 72 76 63 58 53 60 59 58 60 52 54 56 58 61 64 66 66 67 67
69 64 59 49 56 57 60 60 61 62 68 90 97 93 93 87 80 84 75 72 70 62 62 62 59 62 59 47 54 53 53 56 58 62 63 65 66 66
61 62 63 61 57 57 58 57 55 54 54 48 55 62 60 60 62 62 65 65 64 64 65 79 64 67 64 59 54 54 54 54 54 57 60 62 64 65
55 54 55 57 56 54 64 81 72 65 52 56 56 57 58 60 60 68 85 84 85 77 67 74 69 62 56 53 50 52 52 55 56 58 60 62 63 64
59 53 56 54 56 57 64 82 89 77 70 66 61 66 60 62 60 62 73 87 81 80 66 76 72 69 78 66 57 55 68 58 57 58 60 58 58 66
66 61 57 56 55 55 56 74 83 69 80 93 86 74 69 64 76 76 68 72 78 79 63 67 80 81 82 79 81 72 64 64 67 63 60 59 59 61
77 66 62 59 61 62 59 56 61 90 72 65 62 60 57 55 56 60 61 61 62 64 61 65 85 82 89 90 86 75 73 69 68 72 70 63 61 61
68 67 63 61 58 58 70 77 60 64 66 69 68 63 58 58 58 67 65 64 65 65 56 67 79 83 86 92 90 85 80 77 76 75 74 74 74 73
59 61 59 59 59 60 63 61 53 55 60 64 65 65 68 73 75 74 80 78 83 82 74 76 78 80 88 89 90 92 84 89 84 76 75 74 73 71
66 71 78 79 82 72 66 64 66 65 70 71 74 72 70 72 75 77 79 82 91 89 84 82 78 77 81 88 94 88 87 85 80 79 78 81 76 74
89 95 88 94 83 78 74 75 72 68 70 71 72 74 79 80 81 80 80 84 86 82 83 83 86 86 84 83 77 90 86 85 82 80 81 87 82 74
91 94 95 91 90 88 84 80 84 77 73 82 84 81 80 80 78 83 82 81 82 80 80 80 84 87 95 92 71 59 81 78 79 81 80 82 82 74
88 84 85 86 89 90 88 81 86 83 85 86 88 88 89 90 91 89 85 85 83 83 82 80 83 84 89 88 86 76 69 81 81 82 81 78 74 68
80 84 83 85 88 89 89 87 91 90 88 92 90 90 89 90 89 85 84 76 80 92 94 88 78 66 78 83 95 84 72 68 73 82 82 86 85 79
78 81 84 85 87 89 89 88 92 90 91 90 90 90 91 92 93 88 84 86 85 83 83 80 79 82 88 92 90 84 80 73 67 69 71 74 84 90
81 82 84 85 86 88 89 91 91 91 90 91 90 91 92 94 86 85 85 86 88 89 88 88 84 83 88 89 87 89 89 87 82 80 76 66 71 71
Wind_Speed
3 3 3 3 3 3 3 4 3 3 4 0 2 3 1 3 5 5 6 9 10 12 12 11 12 13 13 12 11 11 11 11 11 12 12 12 13 13
3 4 4 3 3 4 4 4 4 5 5 3 3 5 6 7 8 6 7 11 12 11 11 11 11 12 13 14 14 14 13 13 12 12 13 13 13 13
4 5 5 5 4 4 4 4 5 5 7 7 6 6 8 8 7 6 6 6 6 14 13 12 13 14 14 14 15 15 16 16 15 14 14 14 14 15
5 5 5 5 6 6 5 7 6 7 6 9 7 6 8 8 8 7 6 7 6 12 15 16 17 17 16 16 16 16 17 17 16 16 16 16 16 16
6 6 6 6 7 6 6 6 6 7 6 6 7 6 7 7 8 7 7 6 7 14 15 16 17 17 17 17 17 17 17 17 17 17 16 16 16 16
6 6 6 6 7 7 7 7 7 6 6 6 7 8 7 8 6 7 7 6 7 6 9 12 16 17 18 19 20 20 20 19 19 19 19 18 18 17
6 6 7 9 12 11 7 7 7 7 7 7 7 7 8 7 7 7 6 5 6 6 6 5 5 5 6 12 13 17 18 18 18 19 19 20 20 19
7 8 8 10 11 15 16 18 15 10 11 9 8 9 12 9 8 7 7 7 7 4 6 7 4 5 5 5 14 19 20 20 20 21 21 22 22 22
8 8 8 8 10 9 13 17 17 20 19 11 10 9 8 7 8 8 8 8 8 5 7 9 6 9 8 10 22 23 20 20 21 22 23 23 24 24
9 9 8 9 10 11 10 10 10 10 10 9 11 10 11 10 10 11 12 12 10 7 8 11 8 10 7 7 19 22 22 24 25 25 24 24 24 24
9 9 9 10 14 17 10 7 11 11 14 21 22 23 23 24 21 10 10 10 11 8 5 8 7 8 8 10 11 24 26 26 25 24 24 23 23 24
9 10 18 15 19 20 12 9 10 12 12 12 10 12 13 12 22 15 9 10 10 10 6 7 7 8 10 8 12 10 4 15 20 18 18 21 23 10
8 8 7 17 18 18 18 9 11 12 10 6 6 7 7 8 6 7 9 8 9 10 9 9 7 8 9 11 6 7 9 9 8 11 20 23 23 20
10 8 9 19 19 19 16 17 19 10 6 7 8 8 9 9 8 6 8 9 9 12 9 9 6 7 9 10 10 7 8 8 9 9 9 16 23 25
8 13 20 20 20 17 19 18 13 5 6 7 8 8 7 7 8 6 8 10 11 11 10 11 10 10 10 12 11 9 12 8 8 10 10 10 10 9
14 12 14 16 19 14 10 7 5 5 6 6 7 6 6 6 6 6 7 8 9 9 10 12 13 12 11 11 10 10 9 9 5 8 9 10 10 10
12 8 8 9 6 5 5 5 5 5 6 6 7 7 7 7 7 7 8 8 9 9 9 7 9 12 12 13 11 10 9 10 9 10 10 11 10 10
10 7 6 3 3 4 5 5 5 8 6 7 7 7 8 7 8 7 7 7 9 9 9 8 6 8 9 11 18 11 10 10 10 10 10 11 11 9
7 4 2 3 3 3 4 6 6 6 7 7 7 8 8 8 11 8 8 8 9 9 9 8 8 9 10 11 7 17 9 9 10 8 8 10 13 11
3 3 3 3 4 4 5 7 6 6 7 7 8 8 8 9 9 9 9 9 10 9 9 9 9 10 11 12 11 10 15 8 10 11 11 11 13 22
3 4 4 4 5 5 6 6 7 7 8 7 8 8 8 8 9 9 10 18 17 10 10 10 10 21 9 8 9 10 10 19 18 13 12 12 13 12
4 5 4 5 6 6 7 7 7 8 8 8 9 8 8 8 9 10 10 10 10 11 11 10 10 9 9 11 13 14 11 12 18 26 26 24 13 15
6 6 6 6 6 7 7 8 8 9 9 9 9 9 8 9 9 10 10 11 11 11 12 11 10 9 11 11 17 12 16 14 12 13 13 24 28 29
Wind_Direction
282 258 263 279 288 288 289 292 290 307 313 92 5 104 324 310 311 310 300 296 304 302 301 305 305 303 302 305 307 308 310 310 308 305 303 307 306 308
263 276 271 270 262 259 260 261 258 264 270 319 320 335 335 309 296 296 287 293 288 286 285 288 291 292 293 296 298 300 301 303 304 306 309 309 308 307
236 248 263 270 264 255 249 248 254 252 262 276 287 303 298 288 290 285 287 286 282 289 287 285 284 284 284 284 287 292 295 299 301 303 303 304 303 304
257 255 253 251 251 252 251 256 248 249 255 269 279 291 288 294 292 291 285 288 283 286 287 287 288 286 284 282 283 283 285 288 293 298 301 301 303 301
254 255 258 254 258 254 255 254 250 253 253 267 280 281 280 280 280 275 265 265 278 278 276 277 280 283 283 283 283 282 279 281 282 284 290 292 293 292
244 248 254 253 255 261 257 257 256 260 263 258 261 270 267 269 273 277 271 263 263 276 286 285 282 278 281 281 280 282 281 280 280 279 280 282 284 287
244 237 238 244 256 258 259 262 266 260 254 251 251 253 260 255 258 268 268 277 279 283 279 281 277 256 257 276 275 277 277 276 278 280 280 282 281 282
244 257 257 264 267 265 266 257 240 235 250 251 252 253 252 257 263 266 268 263 268 260 283 286 297 289 288 270 268 270 272 275 278 280 281 281 280 280
255 257 261 265 265 256 263 268 264 265 258 254 261 266 293 282 285 279 280 275 271 273 282 277 274 275 268 267 272 275 271 270 270 271 274 277 278 278
268 273 269 266 261 260 258 265 270 272 272 271 267 265 266 266 260 261 264 269 268 267 262 268 263 264 265 267 278 282 281 279 276 272 270 270 272 272
270 269 266 265 268 272 268 261 264 264 268 270 269 266 265 266 265 264 263 264 261 257 256 268 266 276 284 281 275 275 274 274 274 272 272 273 273 271
264 260 263 258 255 256 257 256 258 261 264 263 262 271 282 292 275 267 263 263 273 279 267 270 288 292 283 267 265 266 300 302 300 280 263 273 271 270
264 259 254 262 266 267 268 258 256 266 291 306 288 269 251 247 249 255 259 256 263 266 269 275 273 275 265 273 269 294 294 287 276 275 277 275 270 265
252 259 265 270 272 272 271 271 286 284 272 276 269 263 263 263 266 262 257 260 260 266 273 271 269 267 274 278 277 279 268 269 271 270 270 270 270 267
252 260 267 269 269 275 280 267 269 289 282 272 272 273 275 279 283 285 283 280 277 273 270 266 261 266 264 268 275 267 273 266 264 267 268 265 262 255
267 266 261 261 260 262 282 283 283 277 275 277 280 282 284 282 276 272 273 268 265 265 255 249 252 253 258 257 263 270 264 263 266 267 267 268 267 259
259 252 256 253 244 243 250 254 255 256 258 264 269 273 273 274 271 267 263 264 261 262 264 255 250 249 248 253 260 258 265 266 266 267 270 271 266 263
265 264 272 222 235 258 267 271 267 271 264 262 264 264 263 264 270 271 271 270 271 271 268 266 266 272 264 250 241 257 257 259 262 264 262 265 273 270
273 233 222 229 237 246 259 266 266 263 269 265 264 265 268 267 274 272 270 269 269 269 267 266 264 263 271 273 265 252 249 256 262 258 254 256 267 270
236 265 259 256 256 256 256 265 263 266 262 259 256 255 256 258 260 259 259 263 265 269 272 266 260 257 259 266 271 267 258 263 262 265 265 263 263 270
269 260 255 256 256 255 258 259 257 259 262 257 255 254 254 255 258 258 259 264 262 259 260 260 258 264 271 285 275 269 266 260 252 253 259 262 266 272
263 261 257 256 256 256 259 262 260 261 258 255 255 254 253 252 258 261 260 260 257 259 261 266 271 271 264 260 265 269 270 270 269 266 261 258 259 266
265 264 264 262 261 260 260 259 259 260 257 252 250 250 249 250 250 254 256 255 257 258 259 265 266 262 260 259 261 265 265 267 266 271 266 259 258 260